When you browse on this site, cookies collect data to enhance your experience and personalize the content and advertising you see.
Visit our Privacy Policy to learn more. By continuing to use the site, you agree to this use of cookies and data.
  • In Hungary
  • List of Countries
  • For 7 days
  • Water Temperature
  • Satellite Maps
  • Weather Map
  • News
  • Weather Widgets
  • user-avatar
    Login

    Hourly Weather Kamarang

    Today, 20 January, Sunday

    Time Temperature Precipitation Wind Pressure Humidity
    00:00 +20°C° 0.3 mm 0 mps 714 mmHg 97%
    01:00 +20°C° 0.3 mm 0 mps 714 mmHg 98%
    02:00 +20°C° 0.3 mm 0 mps 714 mmHg 98%
    03:00 +20°C° 0.1 mm 0 mps 714 mmHg 98%
    04:00 +20°C° 0.1 mm 0 mps 714 mmHg 99%
    05:00 +19°C° 0.1 mm 0 mps 714 mmHg 99%
    06:00 +20°C° 0.1 mm 0 mps 714 mmHg 98%
    07:00 +20°C° 0.1 mm 0 mps 714 mmHg 97%
    08:00 +20°C° 0.1 mm 0 mps 715 mmHg 96%
    09:00 +22°C° 0.1 mm 0 mps 715 mmHg 90%
    10:00 +23°C° 0.1 mm 0 mps 715 mmHg 83%
    11:00 +25°C° 0.1 mm 0 mps 715 mmHg 76%
    12:00 +28°C° 0.1 mm 1 mps 715 mmHg 67%
    13:00 +30°C° 0.1 mm 1 mps 714 mmHg 59%
    14:00 +32°C° 0.1 mm 1 mps 713 mmHg 50%
    15:00 +31°C° 0.1 mm 2 mps 713 mmHg 53%
    16:00 +30°C° 0.1 mm 2 mps 713 mmHg 57%
    17:00 +30°C° 0.1 mm 2 mps 712 mmHg 60%
    18:00 +27°C° 0.1 mm 2 mps 712 mmHg 72%
    19:00 +25°C° 0.1 mm 1 mps 713 mmHg 83%
    20:00 +23°C° 0.1 mm 1 mps 713 mmHg 94%
    21:00 +23°C° 0.1 mm 1 mps 713 mmHg 96%
    22:00 +22°C° 0.1 mm 1 mps 714 mmHg 97%
    23:00 +20°C° 0.1 mm 0 mps 714 mmHg 99%

    Tomorrow, 21 January, Monday

    Time Temperature Precipitation Wind Pressure Humidity
    00:00 +20°C° 0.1 mm 0 mps 714 mmHg 98%
    01:00 +20°C° 0.1 mm 0 mps 714 mmHg 98%
    02:00 +20°C° 0.1 mm 0 mps 714 mmHg 98%
    03:00 +20°C° 0.1 mm 0 mps 713 mmHg 98%
    04:00 +20°C° 0.1 mm 0 mps 713 mmHg 98%
    05:00 +20°C° 0.1 mm 0 mps 713 mmHg 98%
    06:00 +20°C° 0 mm 0 mps 714 mmHg 97%
    07:00 +21°C° 0 mm 0 mps 714 mmHg 95%
    08:00 +21°C° 0 mm 0 mps 715 mmHg 94%
    09:00 +22°C° 0.1 mm 0 mps 715 mmHg 86%
    10:00 +26°C° 0.1 mm 1 mps 715 mmHg 79%
    11:00 +27°C° 0.1 mm 1 mps 716 mmHg 72%
    12:00 +28°C° 0.2 mm 1 mps 715 mmHg 67%
    13:00 +29°C° 0.2 mm 1 mps 714 mmHg 62%
    14:00 +31°C° 0.2 mm 2 mps 713 mmHg 57%
    15:00 +30°C° 0.4 mm 2 mps 713 mmHg 60%
    16:00 +29°C° 0.4 mm 2 mps 713 mmHg 63%
    17:00 +29°C° 0.4 mm 2 mps 712 mmHg 65%
    18:00 +26°C° 0.3 mm 2 mps 713 mmHg 76%
    19:00 +24°C° 0.3 mm 1 mps 713 mmHg 86%
    20:00 +22°C° 0.3 mm 1 mps 714 mmHg 96%
    21:00 +22°C° 0 mm 1 mps 714 mmHg 97%
    22:00 +20°C° 0 mm 0 mps 714 mmHg 98%
    23:00 +19°C° 0 mm 0 mps 715 mmHg 99%

    Day after tomorrow, 22 January, Tuesday

    Time Temperature Precipitation Wind Pressure Humidity
    00:00 +19°C° 0 mm 0 mps 714 mmHg 99%
    01:00 +19°C° 0 mm 0 mps 714 mmHg 99%
    02:00 +19°C° 0 mm 0 mps 714 mmHg 99%
    03:00 +19°C° 0 mm 0 mps 714 mmHg 98%
    04:00 +19°C° 0 mm 0 mps 714 mmHg 98%
    05:00 +19°C° 0 mm 0 mps 714 mmHg 97%
    06:00 +19°C° 0 mm 0 mps 714 mmHg 95%
    07:00 +20°C° 0 mm 0 mps 715 mmHg 93%
    08:00 +20°C° 0 mm 0 mps 715 mmHg 90%
    09:00 +24°C° 0 mm 1 mps 715 mmHg 81%
    10:00 +25°C° 0 mm 1 mps 715 mmHg 71%
    11:00 +27°C° 0 mm 1 mps 716 mmHg 61%
    12:00 +29°C° 0 mm 1 mps 715 mmHg 54%
    13:00 +31°C° 0 mm 2 mps 714 mmHg 48%
    14:00 +32°C° 0 mm 2 mps 713 mmHg 41%
    15:00 +32°C° 0 mm 2 mps 713 mmHg 44%
    16:00 +31°C° 0 mm 2 mps 712 mmHg 47%
    17:00 +30°C° 0 mm 2 mps 712 mmHg 50%
    18:00 +28°C° 0 mm 1 mps 713 mmHg 62%
    19:00 +25°C° 0 mm 1 mps 713 mmHg 74%
    20:00 +23°C° 0 mm 1 mps 713 mmHg 86%
    21:00 +23°C° 0.1 mm 1 mps 714 mmHg 89%
    22:00 +22°C° 0.1 mm 1 mps 714 mmHg 92%
    23:00 +20°C° 0.1 mm 0 mps 715 mmHg 95%

    23 January, Wednesday

    Time Temperature Precipitation Wind Pressure Humidity
    00:00 +20°C° 0.1 mm 0 mps 714 mmHg 96%
    01:00 +20°C° 0.1 mm 0 mps 714 mmHg 96%
    02:00 +20°C° 0.1 mm 0 mps 714 mmHg 97%
    03:00 +19°C° 0.1 mm 0 mps 714 mmHg 97%
    04:00 +19°C° 0.1 mm 0 mps 714 mmHg 97%
    05:00 +19°C° 0.1 mm 0 mps 714 mmHg 97%
    06:00 +20°C° 0.2 mm 0 mps 714 mmHg 97%
    07:00 +20°C° 0.2 mm 0 mps 715 mmHg 97%
    08:00 +20°C° 0.2 mm 0 mps 715 mmHg 96%
    09:00 +22°C° 0.2 mm 0 mps 716 mmHg 87%
    10:00 +26°C° 0.2 mm 1 mps 716 mmHg 78%
    11:00 +27°C° 0.2 mm 1 mps 716 mmHg 69%
    12:00 +28°C° 0.2 mm 1 mps 715 mmHg 64%
    13:00 +29°C° 0.2 mm 2 mps 714 mmHg 60%
    14:00 +30°C° 0.2 mm 2 mps 713 mmHg 55%
    15:00 +29°C° 0.2 mm 2 mps 713 mmHg 58%
    16:00 +28°C° 0.2 mm 2 mps 712 mmHg 61%
    17:00 +28°C° 0.2 mm 2 mps 712 mmHg 64%
    18:00 +26°C° 0 mm 1 mps 712 mmHg 72%
    19:00 +24°C° 0 mm 1 mps 713 mmHg 79%
    20:00 +20°C° 0 mm 0 mps 713 mmHg 87%
    21:00 +20°C° 0.1 mm 0 mps 714 mmHg 89%
    22:00 +20°C° 0.1 mm 0 mps 714 mmHg 91%
    23:00 +20°C° 0.1 mm 0 mps 714 mmHg 93%

    24 January, Thursday

    Time Temperature Precipitation Wind Pressure Humidity
    00:00 +19°C° 0 mm 0 mps 714 mmHg 95%
    01:00 +19°C° 0 mm 0 mps 713 mmHg 97%
    02:00 +18°C° 0 mm 0 mps 713 mmHg 99%
    03:00 +19°C° 0.1 mm 0 mps 713 mmHg 98%
    04:00 +19°C° 0.1 mm 0 mps 713 mmHg 98%
    05:00 +19°C° 0.1 mm 0 mps 713 mmHg 97%
    06:00 +19°C° 0.1 mm 0 mps 714 mmHg 95%
    07:00 +20°C° 0.1 mm 0 mps 714 mmHg 93%
    08:00 +20°C° 0.1 mm 0 mps 715 mmHg 91%
    09:00 +22°C° 0.1 mm 0 mps 715 mmHg 84%
    10:00 +23°C° 0.1 mm 0 mps 715 mmHg 77%
    11:00 +26°C° 0.1 mm 1 mps 715 mmHg 71%
    12:00 +27°C° 0.1 mm 1 mps 714 mmHg 66%
    13:00 +28°C° 0.1 mm 1 mps 713 mmHg 62%
    14:00 +29°C° 0.1 mm 2 mps 713 mmHg 57%
    15:00 +28°C° 0.1 mm 2 mps 712 mmHg 61%
    16:00 +28°C° 0.1 mm 2 mps 712 mmHg 65%
    17:00 +27°C° 0.1 mm 2 mps 712 mmHg 70%
    18:00 +25°C° 0.1 mm 1 mps 712 mmHg 78%
    19:00 +23°C° 0.1 mm 1 mps 713 mmHg 87%
    20:00 +20°C° 0.1 mm 0 mps 713 mmHg 95%
    21:00 +20°C° 0.1 mm 0 mps 713 mmHg 95%
    22:00 +20°C° 0.1 mm 0 mps 714 mmHg 94%
    23:00 +20°C° 0.1 mm 0 mps 714 mmHg 94%

    25 January, Friday

    Time Temperature Precipitation Wind Pressure Humidity
    00:00 +19°C° 0 mm 0 mps 714 mmHg 95%
    01:00 +19°C° 0 mm 0 mps 714 mmHg 97%
    02:00 +19°C° 0 mm 0 mps 713 mmHg 98%
    03:00 +19°C° 0 mm 0 mps 713 mmHg 98%
    04:00 +19°C° 0 mm 0 mps 713 mmHg 98%
    05:00 +19°C° 0 mm 0 mps 713 mmHg 98%
    06:00 +19°C° 0 mm 0 mps 714 mmHg 94%
    07:00 +20°C° 0 mm 0 mps 714 mmHg 90%
    08:00 +20°C° 0 mm 0 mps 715 mmHg 87%
    09:00 +22°C° 0 mm 0 mps 715 mmHg 77%
    10:00 +26°C° 0 mm 1 mps 715 mmHg 66%
    11:00 +28°C° 0 mm 1 mps 715 mmHg 56%
    12:00 +29°C° 0 mm 1 mps 714 mmHg 52%
    13:00 +30°C° 0 mm 2 mps 713 mmHg 49%
    14:00 +31°C° 0 mm 2 mps 713 mmHg 45%
    15:00 +31°C° 0 mm 2 mps 712 mmHg 47%
    16:00 +30°C° 0 mm 2 mps 712 mmHg 50%
    17:00 +30°C° 0 mm 2 mps 712 mmHg 52%
    18:00 +27°C° 0 mm 2 mps 712 mmHg 65%
    19:00 +25°C° 0 mm 1 mps 712 mmHg 77%
    20:00 +23°C° 0 mm 1 mps 712 mmHg 90%
    21:00 +22°C° 0.1 mm 1 mps 713 mmHg 93%
    22:00 +22°C° 0.1 mm 1 mps 713 mmHg 95%
    23:00 +19°C° 0.1 mm 0 mps 713 mmHg 98%
    Show more